This is the latest recevied weather packets stored in our database for station/object W2IRT. If no packets are shown the sender has not sent any weather packets the latest 10 day(s).
| Time | Temp. | Humidity | Pressure | Rain* | Wind** | Luminosity | Snow |
|---|---|---|---|---|---|---|---|
| 1777381216 | 12.78° C | 56% | 1021.3 hPa | 0 mm | - | - | - |
| 1777380916 | 12.78° C | 55% | 1021.3 hPa | 0 mm | - | - | - |
| 1777380616 | 12.78° C | 54% | 1021.2 hPa | 0 mm | - | - | - |
| 1777380316 | 12.78° C | 57% | 1021.3 hPa | 0 mm | - | - | - |
| 1777380016 | 12.22° C | 57% | 1021.3 hPa | 0 mm | - | - | - |
| 1777379716 | 12.22° C | 55% | 1021.3 hPa | 0 mm | - | - | - |
| 1777379416 | 12.22° C | 59% | 1021.2 hPa | 0 mm | - | - | - |
| 1777379116 | 11.67° C | 59% | 1021.4 hPa | 0 mm | - | - | - |
| 1777378816 | 11.11° C | 63% | 1021.5 hPa | 0 mm | - | - | - |
| 1777378516 | 10.56° C | 70% | 1021.6 hPa | 0 mm | - | - | - |
| 1777378216 | 10° C | 72% | 1021.6 hPa | 0 mm | - | - | - |
| 1777377916 | 9.44° C | 75% | 1021.6 hPa | 0 mm | - | - | - |
| 1777377616 | 8.89° C | 78% | 1021.6 hPa | 0 mm | - | - | - |
| 1777377316 | 8.33° C | 79% | 1021.5 hPa | 0 mm | - | - | - |
| 1777377016 | 8.33° C | 81% | 1021.5 hPa | 0 mm | - | - | - |
| 1777376716 | 7.78° C | 82% | 1021.5 hPa | 0 mm | - | - | - |
| 1777376416 | 7.22° C | 81% | 1021.5 hPa | 0 mm | - | - | - |
| 1777376130 | 7.22° C | 81% | 1021.5 hPa | 0 mm | - | - | - |
| 1777375816 | 7.22° C | 81% | 1021.6 hPa | 0 mm | - | - | - |
| 1777375516 | 7.22° C | 80% | 1021.7 hPa | 0 mm | - | - | - |
| 1777375216 | 7.22° C | 81% | 1021.6 hPa | 0 mm | - | - | - |
| 1777374916 | 6.67° C | 81% | 1021.5 hPa | 0 mm | - | - | - |
| 1777374616 | 6.67° C | 81% | 1021.5 hPa | 0 mm | - | - | - |
| 1777374316 | 6.67° C | 81% | 1021.5 hPa | 0 mm | - | - | - |
| 1777374016 | 6.67° C | 80% | 1021.3 hPa | 0 mm | - | - | - |
* Rain latest hour (hover to see other rain measurements)
** Current wind speed in m/s (hover to see current wind gust speed)